Location: Brede
(50.9167°N, 0.6000°E)
Time: 03:05:13
(UTC+00:00)

Cosmos 1544 - Pass Details

Date: 08 August 2020
Orbit: 471 x 491 km, 82.5° (Epoch: 27 September)

Event Time Altitude Azimuth Distance (km) Brightness Sun altitude
Exits shadow 00:18:37 69° 350° (N) 527 3.3 -22.9°
Drops below altitude 10° 00:21:55 10° 9° (N) 1,686 6.9 -22.9°
Sets 00:24:03 0° 10° (N) 2,576 8.2 -22.9°
